CW8198 Weather Reports


time (UTC)temp
F
wind
direction
speed
knots
gust
knots
rain 1hr
in
rain 24hr
in
rain mn
in
humidity
%
barometer
mb
20260504070127 48 334 0.0 1.7 0.00 0.00 0.00 82 1005.0
20260504060118 49 9 0.9 1.7 0.00 0.00 0.00 78 1005.8
20260504050606 52 146 0.9 0.9 0.00 0.00 0.00 74 1006.4
20260504050106 52 178 0.0 0.9 0.00 0.00 0.00 73 1006.5
20260504045608 53 51 0.0 0.9 0.00 0.00 0.00 72 1006.5
20260504045105 53 319 0.9 0.9 0.00 0.00 0.00 72 1006.4
20260504044606 53 265 0.0 0.9 0.00 0.00 0.00 72 1006.5
20260504043605 54 309 0.9 2.6 0.00 0.00 0.00 71 1006.6
20260504043105 54 129 0.9 1.7 0.00 0.00 0.00 71 1006.6
20260504042605 54 9 0.9 1.7 0.00 0.00 0.00 71 1006.7
20260504042104 54 119 0.0 1.7 0.00 0.00 0.00 71 1006.7
20260504041604 54 126 0.9 1.7 0.00 0.00 0.00 71 1006.7
20260504041103 55 119 0.9 1.7 0.00 0.00 0.00 70 1006.7
20260504040604 55 221 0.0 1.7 0.00 0.00 0.00 70 1006.9
20260504040104 55 282 0.0 0.9 0.00 0.00 0.00 69 1006.8
20260504035103 56 265 0.0 1.7 0.00 0.00 0.00 68 1007.2
20260504034058 56 149 0.0 0.9 0.00 0.00 0.00 68 1007.2
20260504033558 56 265 0.0 0.9 0.00 0.00 0.00 67 1007.4
20260504033057 57 291 0.0 0.9 0.00 0.00 0.00 66 1007.4
20260504032541 57 51 0.0 0.9 0.00 0.00 0.00 66 1007.4
20260504032041 57 9 0.0 1.7 0.00 0.00 0.00 66 1007.3
20260504031541 57 9 0.0 1.7 0.00 0.00 0.00 65 1007.5
20260504031041 57 309 0.0 1.7 0.00 0.00 0.00 65 1007.5
20260504030541 58 238 0.9 1.7 0.00 0.00 0.00 64 1007.4
20260504025540 58 221 0.9 1.7 0.00 0.00 0.00 63 1007.5
20260504025040 59 137 0.0 1.7 0.00 0.00 0.00 63 1007.6
20260504024539 59 93 0.0 2.6 0.00 0.00 0.00 62 1007.5
20260504024038 59 51 0.9 2.6 0.00 0.00 0.00 61 1007.5
20260504023538 60 108 0.9 1.7 0.00 0.00 0.00 62 1007.6
20260504023038 60 9 0.0 1.7 0.00 0.00 0.00 59 1007.6
20260504022538 61 238 0.9 1.7 0.00 0.00 0.00 56 1007.6
20260504022038 61 232 0.0 1.7 0.00 0.00 0.00 54 1007.5
20260504021538 62 137 0.0 1.7 0.00 0.00 0.00 53 1007.6
20260504020037 64 34 0.0 1.7 0.00 0.00 0.00 49 1007.7
20260504015537 64 105 0.9 1.7 0.00 0.00 0.00 48 1007.7
20260504015038 65 119 0.9 1.7 0.00 0.00 0.00 45 1007.7
20260504014036 66 309 0.0 1.7 0.00 0.00 0.00 45 1007.9
20260504013536 66 115 0.9 2.6 0.00 0.00 0.00 43 1007.7
20260504013036 67 129 1.7 2.6 0.00 0.00 0.00 42 1007.8
20260504012535 68 185 0.9 2.6 0.00 0.00 0.00 44 1007.7
20260504012035 68 137 0.0 0.9 0.00 0.00 0.00 40 1007.6
20260504011529 69 178 0.0 0.9 0.00 0.00 0.00 39 1007.7
20260504011030 69 205 0.0 0.9 0.00 0.00 0.00 41 1007.7
20260504010529 70 265 0.0 1.7 0.00 0.00 0.00 38 1007.7
20260504005529 70 205 0.9 1.7 0.00 0.00 0.00 37 1007.8
20260504004029 71 309 0.9 2.6 0.00 0.00 0.00 36 1007.9
20260504003528 71 265 0.9 3.5 0.00 0.00 0.00 36 1007.9
20260504003028 72 340 1.7 4.3 0.00 0.00 0.00 35 1007.9
20260504002528 73 325 0.9 4.3 0.00 0.00 0.00 35 1008.0
20260504002027 73 341 0.9 2.6 0.00 0.00 0.00 31 1008.0
20260504001528 74 9 1.7 4.3 0.00 0.00 0.00 32 1008.0
20260504001027 74 291 2.6 7.8 0.00 0.00 0.00 32 1008.1
20260504000528 75 282 0.9 7.8 0.00 0.00 0.00 35 1008.0
20260504000026 75 259 2.6 6.1 0.00 0.00 0.00 32 1008.1
20260503234525 76 245 1.7 7.0 0.00 0.00 0.00 32 1008.1
20260503234025 76 273 1.7 7.0 0.00 0.00 0.00 33 1008.1
20260503233524 77 291 2.6 8.7 0.00 0.00 0.00 31 1008.2
20260503233025 78 296 4.3 8.7 0.00 0.00 0.00 30 1008.2
20260503232026 78 325 1.7 6.1 0.00 0.00 0.00 32 1008.2
20260503231523 78 295 1.7 7.8 0.00 0.00 0.00 31 1008.2
20260503231023 78 342 2.6 7.8 0.00 0.00 0.00 32 1008.2
20260503230022 80 72 0.9 6.1 0.00 0.00 0.00 24 1008.3
20260503225522 81 282 1.7 7.0 0.00 0.00 0.00 32 1008.3
20260503225022 80 317 1.7 7.0 0.00 0.00 0.00 31 1008.3
20260503224522 80 295 1.7 7.0 0.00 0.00 0.00 30 1008.3
20260503224022 80 315 2.6 9.6 0.00 0.00 0.00 30 1008.3
20260503223021 81 247 2.6 6.1 0.00 0.00 0.00 29 1008.3
20260503222023 80 325 1.7 8.7 0.00 0.00 0.00 29 1008.4
20260503220520 78 312 2.6 11.3 0.00 0.00 0.00 31 1008.5
20260503220018 78 348 2.6 9.6 0.00 0.00 0.00 31 1008.5
20260503215519 78 259 1.7 6.1 0.00 0.00 0.00 35 1008.6
20260503215019 78 238 1.7 7.0 0.00 0.00 0.00 31 1008.6
20260503214018 77 325 2.6 8.7 0.00 0.00 0.00 33 1008.8
20260503213518 77 249 5.2 8.7 0.00 0.00 0.00 27 1008.8
20260503213018 77 272 1.7 7.8 0.00 0.00 0.00 30 1008.7
20260503212517 78 97 2.6 12.2 0.00 0.00 0.00 28 1008.9
20260503212019 79 28 6.1 12.2 0.00 0.00 0.00 30 1009.0
20260503211517 80 298 4.3 7.8 0.00 0.00 0.00 32 1009.1
20260503211017 79 300 2.6 7.8 0.00 0.00 0.00 32 1009.1
20260503210517 78 319 1.7 7.8 0.00 0.00 0.00 30 1009.3
20260503210017 77 338 2.6 7.8 0.00 0.00 0.00 37 1009.4
20260503205517 76 265 0.9 10.4 0.00 0.00 0.00 30 1009.5
20260503205017 76 309 2.6 10.4 0.00 0.00 0.00 34 1009.5
20260503204516 76 346 5.2 10.4 0.00 0.00 0.00 34 1009.6
20260503204016 77 26 1.7 7.8 0.00 0.00 0.00 29 1009.6
20260503203515 77 225 3.5 7.8 0.00 0.00 0.00 30 1009.6
20260503203016 77 282 1.7 5.2 0.00 0.00 0.00 33 1009.7
20260503202516 77 76 1.7 10.4 0.00 0.00 0.00 38 1009.8
20260503202017 77 265 2.6 10.4 0.00 0.00 0.00 36 1010.0
20260503201514 77 309 1.7 8.7 0.00 0.00 0.00 36 1009.9
20260503201014 77 51 1.7 12.2 0.00 0.00 0.00 39 1010.2
20260503200509 77 321 4.3 13.9 0.00 0.00 0.00 30 1010.2
20260503195009 74 286 2.6 11.3 0.00 0.00 0.00 37 1010.3
20260503194509 74 348 2.6 11.3 0.00 0.00 0.00 39 1010.4
20260503194008 74 51 5.2 11.3 0.00 0.00 0.00 40 1010.5
20260503193508 73 319 3.5 9.6 0.00 0.00 0.00 38 1010.4
20260503193008 74 344 3.5 12.2 0.00 0.00 0.00 35 1010.4
20260503192508 75 331 6.1 12.2 0.00 0.00 0.00 35 1010.5
20260503191509 76 17 7.0 13.9 0.00 0.00 0.00 35 1010.6
20260503191007 76 29 4.3 9.6 0.00 0.00 0.00 35 1010.7
20260503190507 76 19 2.6 8.7 0.00 0.00 0.00 40 1010.7
20260503190008 75 15 5.2 11.3 0.00 0.00 0.00 34 1010.7
20260503185506 74 265 3.5 11.3 0.00 0.00 0.00 41 1010.8
20260503184507 74 48 6.1 17.4 0.00 0.00 0.00 33 1011.1
20260503184006 75 341 6.1 17.4 0.00 0.00 0.00 36 1011.1
20260503183506 75 340 3.5 12.2 0.00 0.00 0.00 38 1011.1
20260503183005 74 296 5.2 12.2 0.00 0.00 0.00 37 1011.1
20260503182506 74 317 4.3 10.4 0.00 0.00 0.00 36 1011.0
20260503182006 74 312 4.3 13.0 0.00 0.00 0.00 36 1011.2
20260503181507 73 342 7.0 13.0 0.00 0.00 0.00 37 1011.1
20260503181005 73 342 4.3 11.3 0.00 0.00 0.00 36 1011.2
20260503180504 74 336 4.3 12.2 0.00 0.00 0.00 37 1011.3
20260503180005 74 17 4.3 12.2 0.00 0.00 0.00 36 1011.3
20260503175504 73 342 3.5 10.4 0.00 0.00 0.00 41 1011.4
20260503175004 73 329 4.3 11.3 0.00 0.00 0.00 41 1011.5
20260503174503 72 339 5.2 11.3 0.00 0.00 0.00 36 1011.6
20260503174002 73 9 5.2 12.2 0.00 0.00 0.00 37 1011.6
20260503173502 72 9 5.2 12.2 0.00 0.00 0.00 39 1011.7
20260503173002 73 293 6.1 11.3 0.00 0.00 0.00 34 1011.7
20260503172502 73 265 4.3 14.8 0.00 0.00 0.00 38 1011.7
20260503172002 73 338 3.5 14.8 0.00 0.00 0.00 35 1011.7
20260503171002 73 317 7.8 13.9 0.00 0.00 0.00 37 1011.8
20260503150954 65 344 3.5 7.0 0.00 0.00 0.00 52 1011.7
20260503150454 64 282 2.6 8.7 0.00 0.00 0.00 50 1011.6
20260503130947 56 325 1.7 6.1 0.00 0.00 0.00 53 1010.8
20260503130447 56 265 2.6 9.6 0.00 0.00 0.00 53 1010.9
20260503090428 57 153 7.8 13.0 0.00 0.00 0.00 43 1010.0
20260503081425 57 195 5.2 8.7 0.00 0.00 0.00 43 1010.5
20260503080925 57 221 5.2 8.7 0.00 0.00 0.00 43 1010.4
20260503080424 57 196 2.6 9.6 0.00 0.00 0.00 43 1010.6
20260503072922 56 217 4.3 9.6 0.00 0.00 0.00 46 1010.9
20260503072423 56 250 4.3 9.6 0.00 0.00 0.00 44 1010.8
20260503071922 56 212 3.5 11.3 0.00 0.00 0.00 44 1010.9